Погода в Тверской

Россия / Краснодарский край     44°36′15″N   39°36′44″E
темп.,
°C
ветер,
м/с
пор.,
м/с
влажн.,
%
обл.,
%
осадки,
мм/ч
давл.,
гПа
погр.,
м
29 июля, чт
чт2900:00+17в23620 0.0 101546
03:00+14ююв11770 0.0 101512
06:00+14сз00790 0.0 101510
09:00+24св26430 0.0 1014675
12:00+30всв46290 0.0 10121811
15:00+31всв45270 0.0 10112320
18:00+29в37380 0.0 1011613
21:00+20юв23610 0.0 101259
30 июля, пт
пт3000:00+18ю11710 0.0 101211
03:00+16ююз11760 0.0 101211
06:00+17ю11770 0.0 101215
09:00+26св01460 0.0 1012458
12:00+31с22340 0.0 10101633
15:00+33сз13270 0.0 10092537
18:00+30ссв25360 0.0 1008128
21:00+21юз22680 0.0 100922
31 июля, сб
сб3100:00+20юз22804 0.0 101019
03:00+19ююз22825 0.0 101025
06:00+19ююз21830 0.0 101028
09:00+28зюз11510 0.0 1010558
12:00+32ссз22315 0.0 10091807
15:00+34ссз23250 0.0 10082828
18:00+31зсз233919 0.0 100882
21:00+23юз12670 0.0 101037
1 августа, вс
вс100:00+21ююз22790 0.0 101023
03:00+20юз22790 0.0 101019
06:00+19ююз11820 0.0 101121
09:00+28зсз11510 0.0 1011542
12:00+34с12330 0.0 10101572
15:00+35сз34260 0.0 10082859
18:00+32сз253655 0.0 1008165
21:00+24зюз22690 0.0 101023
2 августа, пн
пн200:00+21ююз22750 0.0 101017
03:00+20ююз22740 0.0 101020
06:00+20ююз22770 0.0 101137
09:00+28з22520 0.0 1011614
12:00+34ссз11360 0.0 10091729
15:00+36с01280 0.0 10082621
18:00+33з11410 0.0 100835
21:00+24юз12680 0.0 100929